Location: Jackson Park
(37.2862°N, 79.9123°W)
Time: 14:16:31
(UTC+00:00)

Vanguard 1 Rocket - Pass Details

Date: 15 May 2026
Orbit: 656 x 4211 km, 34.3° (Epoch: 8 June)

Event Time Altitude Azimuth Distance (km) Brightness Sun altitude
Rises 01:34:21 0° 283° (WNW) 6,104 12.9 -13.4°
Reaches altitude 10° 01:37:46 10° 279° (W) 5,472 12.4 -13.9°
Maximum altitude 01:55:40 58° 207° (SSW) 4,219 10.6 -16.7°
Enters shadow 02:14:32 22° 141° (SE) 6,355 11.0 -19.5°
Drops below altitude 10° 02:20:51 10° 136° (SE) 7,305 - -20.4°
Sets 02:26:24 0° 132° (SE) 8,150 - -21.1°
